Location: Orahovica
(45.5400°N, 17.8847°E)
Time: 01:42:36
(UTC+00:00)

Daily predictions for brighter satellites

Satellite Brightness Start Highest point End
(mag) Time Altitude Azimuth Time Altitude Azimuth Time Altitude Azimuth
Resurs 1-4 Rocket 4.4 00:09:18 10° NNE 00:10:53 20° NNE 00:10:53 20° NNE
CZ-2D R/B 4.4 00:12:15 10° NNE 00:13:55 20° NNE 00:13:55 20° NNE
Lacrosse 5 4.3 00:34:39 19° NE 00:34:39 19° NE 00:36:01 10° NE
USA 267 4.5 00:42:14 10° ENE 00:46:47 32° ESE 00:46:47 32° ESE
SL-16 R/B 4.3 01:04:18 20° NNW 01:04:18 20° NNW 01:06:04 10° NNW
ADEOS II 3.4 01:01:16 10° NNE 01:04:24 36° NNE 01:04:24 36° NNE
IDEFIX/ARIANE 42P 4.2 01:05:46 10° NE 01:10:17 28° E 01:10:25 28° E
Cosmos 1697 Rocket 3.8 01:14:51 38° N 01:14:51 38° N 01:18:20 10° NNE
Cosmos 1980 Rocket 2.9 01:20:38 51° NE 01:20:38 51° NE 01:24:51 10° NNE
Cosmos 2263 Rocket 2.9 01:17:20 10° NNW 01:22:50 50° ENE 01:28:20 10° SE
USA 234 4.0 01:17:37 10° E 01:23:48 48° NNE 01:28:11 20° NW
Cosmos 2322 Rocket 4.0 01:26:32 20° SE 01:28:20 23° ESE 01:32:45 10° NE
Cosmos 1934 Rocket 3.9 01:30:33 10° N 01:36:29 78° ENE 01:36:29 78° ENE
SL-16 R/B 3.4 01:38:10 31° SE 01:39:24 35° ESE 01:44:29 10° NE
IRS-1C 4.3 01:41:36 10° NNE 01:46:11 66° N 01:46:11 66° N
Cosmos 1238 Rocket 3.8 01:44:26 10° N 01:51:00 87° W 01:51:14 83° SSW
Cosmos 2227 4.3 01:46:09 10° NNW 01:57:01 12° SSE 01:57:28 10° SSE
Cosmos 1898 Rocket 4.4 01:47:56 10° NNW 01:53:03 49° ENE 01:58:09 10° SE
Spot 4 Rocket 4.4 01:48:09 10° NNE 01:53:15 58° E 01:53:49 55° SE
Resurs 1-4 Rocket 4.0 01:49:55 10° NNW 01:51:58 18° NNW 01:51:58 18° NNW
CZ-2D R/B 4.0 01:53:09 10° NNW 01:55:14 18° NNW 01:55:14 18° NNW
ASTEX 1 3.5 01:54:36 10° N 01:59:09 73° N 01:59:09 73° N
BREEZE-M DEB (TANK) 4.2 01:58:35 41° S 01:59:52 45° SSE 02:03:50 10° E
MSX 4.4 01:54:36 10° NNE 02:00:17 55° E 02:02:51 31° SSE
Cosmos 1869 Rocket 4.0 01:59:50 10° N 02:03:44 59° NE 02:03:44 59° NE
BREEZE-M DEB (TANK) 3.8 02:06:02 43° ENE 02:06:02 43° ENE 02:09:56 10° ENE
SJ 16-02 3.7 02:02:17 10° NNW 02:02:59 14° NNW 02:02:59 14° NNW
Cosmos 1605 Rocket 4.0 02:02:48 10° N 02:09:15 90° E 02:14:29 16° S
Cosmos 2228 Rocket 3.5 02:10:30 54° N 02:10:30 54° N 02:13:59 10° N
Meteor 1-5 Rocket 4.1 02:05:04 10° N 02:10:26 81° E 02:14:14 20° SSE
Gbstr 26 Del rocket 4.3 02:06:54 35° WNW 02:10:46 77° SW 02:18:10 10° SE
Cosmos 1535 Rocket 4.5 02:05:05 10° NNW 02:11:23 62° W 02:12:01 59° WSW
Cosmos 1937 Rocket 4.2 02:09:13 10° NNW 02:14:15 52° ENE 02:19:16 10° SE
Lacrosse 5 3.1 02:13:50 29° NNW 02:14:26 30° NNW 02:18:54 10° NE
Meteor 1-10 Rocket 4.4 02:13:47 36° S 02:16:17 76° E 02:22:12 10° NNE
ATLAS 5 CENTAUR R/B 4.4 02:17:33 10° NNW 02:18:28 10° N 02:19:23 10° N
Meteor 2-6 Rocket 4.1 02:18:33 51° SSW 02:20:07 83° W 02:26:02 10° N
H-2A R/B 2.6 02:16:23 10° SSE 02:20:43 60° ENE 02:25:10 10° N
CZ-4C R/B 3.7 02:21:21 55° NE 02:21:21 55° NE 02:24:28 10° N
IRIDIUM 103 4.4 02:18:26 10° N 02:23:41 79° E 02:28:18 13° S
ERBS 3.8 02:25:39 32° NNE 02:25:39 32° NNE 02:27:51 10° NE
X-37B 3.1 02:27:32 16° SE 02:27:32 16° SE 02:28:16 10° SE
ARIANE 5 R/B 2.7 02:20:39 10° N 02:25:30 51° WNW 02:25:30 51° WNW
Cosmos 1763 Rocket 3.6 02:24:23 42° S 02:26:12 78° ESE 02:31:31 10° NNE
FALCON 9 DEB 3.8 02:27:48 52° ENE 02:27:48 52° ENE 02:30:31 10° ENE
NOSS 3-4 (A) 4.1 02:20:46 10° NW 02:27:42 69° NE 02:35:25 10° SE
NOSS 3-4 (C) 4.1 02:20:52 10° NW 02:27:49 68° NE 02:35:31 10° SE
SL-4 R/B 2.2 02:27:59 67° SSW 02:28:25 73° SSE 02:33:10 10° ENE
ERS-2 3.7 02:25:05 10° SE 02:28:28 36° ENE 02:31:51 10° N
USA 267 3.2 02:24:56 10° NE 02:31:30 78° NW 02:34:07 40° WSW
CZ-2C R/B 2.6 02:28:56 10° NNE 02:32:41 84° NW 02:32:41 84° NW
USA 305 4.4 02:34:11 25° NNW 02:35:11 27° N 02:38:51 10° NE
NOSS 3-3 (A) 4.2 02:34:42 42° W 02:36:28 56° NW 02:43:05 10° NE
NOSS 3-3 (C) 4.1 02:34:50 42° W 02:36:34 56° NW 02:43:10 10° NE
Helios 1B 4.4 02:36:39 45° S 02:37:52 70° WSW 02:42:13 10° NNW
USA 306 4.4 02:38:23 23° NW 02:39:35 27° N 02:43:15 10° NE
ADEOS Rocket 3.6 02:33:53 10° SSE 02:40:23 60° ENE 02:46:16 10° N
DEBRIS 3.4 02:42:08 36° SSE 02:42:08 36° SSE 02:45:32 10° SE
IRIDIUM 106 4.2 02:36:46 10° N 02:41:59 73° W 02:46:40 13° S
Cosmos 540 Rocket 4.0 02:40:43 15° S 02:44:57 59° ESE 02:50:02 10° NNE
ADEOS II 3.6 02:42:01 10° NNW 02:45:20 19° NW 02:45:20 19° NW
Cosmos 1727 Rocket 3.9 02:42:11 15° SSW 02:47:34 79° W 02:53:55 10° N
Cosmos 2100 Rocket 4.2 02:41:57 10° N 02:48:22 74° E 02:54:42 10° SSE
CZ-4B R/B 3.3 02:46:45 10° SE 02:49:36 31° ENE 02:52:32 10° N
IDEFIX/ARIANE 42P 3.0 02:45:03 10° N 02:50:00 42° WNW 02:51:13 36° W
Cosmos 990 Rocket 4.0 02:45:12 10° NNW 02:50:14 51° WSW 02:55:17 10° S
PAYLOAD A 3.8 02:46:26 10° NNE 02:51:09 80° ESE 02:55:21 13° S
ATLAS 2AS CENTAUR R/B 2.9 02:44:02 10° NW 02:51:36 77° NE 02:58:31 10° SE
Cosmos 921 Rocket 4.1 02:52:56 27° NW 02:52:56 27° NW 02:56:11 10° N
Cosmos 2360 Rocket 2.7 02:47:36 11° S 02:52:58 60° ESE 02:58:34 10° NNE
Cosmos 1459 Rocket 4.1 02:49:25 10° N 02:55:32 77° E 03:01:34 10° SSE
Cosmos 1570 Rocket 4.2 02:51:14 13° S 02:55:58 72° ESE 03:01:19 10° NNE
Cosmos 1802 Rocket 4.4 02:51:02 10° N 02:57:13 66° E 03:03:28 10° SSE
Cosmos 468 Rocket 4.2 02:57:17 33° WSW 02:59:21 51° WNW 03:04:30 10° NNE
Cosmos 1980 Rocket 3.6 03:02:24 19° WNW 03:03:50 21° NW 03:08:03 10° N
Cosmos 2263 Rocket 3.0 03:01:47 10° NW 03:06:27 27° WSW 03:11:09 10° SSW
Cosmos 44 Rocket 3.2 03:03:33 23° SSW 03:06:32 85° SE 03:11:26 10° NE
USA 234 3.2 03:00:06 10° SE 03:06:38 73° SW 03:13:11 10° NW
Meteor 1-11 Rocket 3.8 03:01:48 10° NNW 03:07:23 53° W 03:12:49 10° S
Cosmos 1484 Rocket 4.3 03:04:21 10° NNE 03:08:07 39° E 03:11:53 10° SSE
Cosmos 1844 Rocket 2.9 03:05:51 10° NNW 03:11:32 77° ENE 03:17:11 10° SSE
Cosmos 2322 Rocket 2.3 03:08:23 23° SW 03:11:56 57° WNW 03:17:35 10° NNE
Meteor 1-4 Rocket 3.7 03:13:45 24° WNW 03:13:45 24° WNW 03:16:23 10° NNW
Okean 1 4.5 03:10:31 10° SSE 03:14:23 45° E 03:18:16 10° NNE
Intercosmos 25 3.9 03:12:14 10° S 03:15:58 52° E 03:19:05 10° NNE
Meteor 1-27 Rocket 3.9 03:10:21 10° SSW 03:16:12 59° WNW 03:22:01 10° N
Cosmos 1844 4.0 03:11:15 10° NNW 03:16:50 70° ENE 03:22:22 10° SE
Cosmos 1707 Rocket 3.9 03:14:39 22° SW 03:17:00 42° WNW 03:21:10 10° N
Cosmos 1666 3.4 03:13:46 10° NNW 03:17:09 31° W 03:18:11 26° WSW
Meteor 1-31 Rocket 4.1 03:17:00 10° NNE 03:20:40 42° E 03:24:20 10° S
Cosmos 1812 4.3 03:21:36 18° WNW 03:21:36 18° WNW 03:24:02 10° NNW
SL-16 R/B 2.8 03:20:04 21° WSW 03:23:25 40° NW 03:28:46 10° NNE
SAR-Lupe-1 4.4 03:21:01 10° SSE 03:24:33 68° ENE 03:28:08 10° N
CZ-3B R/B 4.2 03:21:33 12° WNW 03:25:16 38° NNE 03:39:04 10° E
Cosmos 1437 Rocket 2.9 03:21:32 10° S 03:25:18 72° E 03:29:10 10° NNE
USA 276 2.2 03:25:21 19° WNW 03:27:30 74° NNE 03:30:43 10° ESE
Cosmos 372 Rocket 3.9 03:23:34 10° NNW 03:28:43 75° WSW 03:33:48 10° SSE
Cosmos 1536 3.5 03:25:48 10° NNW 03:29:30 34° W 03:33:10 10° SSW
Cosmos 2237 4.2 03:24:52 10° SW 03:30:33 67° WNW 03:36:15 10° NNE
Cosmos 1733 Rocket 3.2 03:27:49 10° NNW 03:31:59 46° W 03:36:06 10° SSW
Cosmos 2173 Rocket 4.1 03:25:47 10° NNW 03:31:59 58° W 03:38:12 10° S
CZ-2C R/B 2.8 03:28:11 10° N 03:33:10 50° WNW 03:38:09 10° SW
ATLAS CENTAUR R/B 3.3 03:24:48 10° NW 03:33:41 54° NNE 03:37:17 10° ESE
Cosmos 1898 Rocket 4.5 03:30:39 10° NW 03:34:48 24° W 03:38:57 10° SSW
CZ-4B R/B 4.5 03:32:10 10° NNE 03:36:33 69° ESE 03:41:00 10° S
Cosmos 2242 Rocket 3.9 03:32:41 10° S 03:37:03 72° E 03:41:28 10° NNE
ALOS 2.4 03:33:46 10° NNE 03:38:28 82° ESE 03:43:08 10° S
SKYMED 2 4.4 03:36:26 10° SSE 03:40:39 54° ENE 03:44:55 10° N
Cosmos 2219 Rocket 3.0 03:36:05 10° S 03:41:35 54° ESE 03:47:07 10° NE
CZ-4C R/B 3.5 03:34:45 10° NW 03:41:51 65° NE 03:50:03 10° SE
Cosmos 1689 Rocket 2.6 03:40:36 10° SSE 03:43:32 64° ENE 03:46:30 10° N
Cosmos 2298 Rocket 4.0 03:39:40 10° NNW 03:45:00 80° WSW 03:50:17 10° SSE
PSLV R/B 4.4 03:43:16 10° N 03:46:53 29° WNW 03:50:30 10° SW
Meteor 2-20 Rocket 4.4 03:41:04 10° S 03:47:13 82° W 03:53:23 10° N
Cosmos 1862 Rocket 4.1 03:47:38 10° SW 03:51:43 37° WNW 03:55:47 10° N
H-2A R/B 3.7 03:54:33 10° SW 03:57:06 15° W 03:59:40 10° NW
Lacrosse 5 3.7 03:54:46 10° NW 03:58:43 22° N 04:02:41 10° NE
COSMOS 2428 3.2 03:54:17 10° SSW 03:59:55 66° ESE 04:05:37 10° NNE
Cosmos 2208 Rocket 4.5 03:55:38 10° SW 04:00:33 41° WNW 04:05:28 10° N
X-37B 2.9 04:00:26 10° SW 04:01:17 11° SW 04:02:10 10° SSW
ERS-2 3.6 03:59:44 10° SW 04:02:08 17° W 04:04:35 10° NW
Cosmos 841 Rocket 4.3 03:57:33 10° WSW 04:02:16 33° WNW 04:07:02 10° N
Cosmos 2016 Rocket 4.2 03:57:36 10° NNW 04:03:27 48° W 04:09:15 10° SSW
FALCON 9 DEB 4.5 04:01:20 10° WNW 04:04:23 29° NNW 04:07:26 10° NE
Cosmos 1743 3.4 04:01:38 10° NNW 04:05:00 31° W 04:08:23 10° SSW
ATLAS 5 CENTAUR R/B 4.4 04:02:41 10° NNW 04:05:28 14° NNE 04:08:27 10° NE
Cosmos 2061 Rocket 4.3 03:59:28 10° NNW 04:05:37 49° W 04:11:44 10° SSW
Cosmos 1125 Rocket 3.5 04:02:27 10° NNW 04:07:46 81° WSW 04:13:00 10° SSE
SL-4 R/B 3.0 04:03:56 10° W 04:08:26 46° NNW 04:13:05 10° ENE
Cosmos 2333 Rocket 2.3 04:03:23 10° SSW 04:09:10 87° WNW 04:14:59 10° NNE
PSLV R/B 3.9 04:06:18 10° S 04:10:20 69° WSW 04:14:27 10° NNW
